Date,TemperatureHighF,TemperatureAvgF,TemperatureLowF,DewpointHighF,DewpointAvgF,DewpointLowF,HumidityHigh,HumidityAvg,HumidityLow,PressureMaxIn,PressureMinIn,WindSpeedMaxMPH,WindSpeedAvgMPH,GustSpeedMaxMPH,PrecipitationSumIn
2013-3-1,61.9,55.5,50.4,41.3,38.4,35.4,59,53,46,30.00,29.89,10,2,10,0.00
2013-3-2,56.7,48.9,42.4,38.2,33.7,28.9,72,56,41,30.03,29.91,18,2,18,0.00
2013-3-3,48.7,43.5,38.3,31.8,30.1,28.0,70,59,50,30.14,29.98,21,2,21,0.00
2013-3-4,58.8,46.9,35.2,39.9,33.6,27.7,75,61,37,30.23,30.11,12,1,12,0.00
2013-3-5,73.0,58.6,43.5,54.9,45.6,37.1,80,64,39,30.19,29.89,10,1,10,0.00
2013-3-6,63.3,53.8,45.7,57.2,37.6,31.2,83,56,37,30.13,29.86,21,1,21,0.00
2013-3-7,59.4,50.0,41.2,44.5,38.3,30.3,78,64,55,30.23,30.13,9,2,9,0.00
2013-3-8,64.6,52.9,43.5,50.6,43.5,-99.9,83,72,55,30.24,30.16,13,2,13,0.00
2013-3-9,68.5,57.7,46.0,51.8,47.1,40.6,82,68,54,30.29,30.17,16,-1,16,0.00
2013-3-10,73.2,62.8,54.3,62.2,54.2,-99.9,87,76,61,30.22,30.14,5,0,5,0.00
2013-3-11,74.1,64.5,55.2,61.6,56.7,-99.9,88,78,64,30.15,29.91,4,0,4,0.00
2013-3-12,71.6,65.3,57.0,67.2,59.5,48.0,90,82,68,30.02,29.84,13,1,13,0.00
2013-3-13,68.2,58.4,51.4,48.2,42.3,37.5,79,57,38,30.17,30.01,12,2,12,0.00
2013-3-14,56.5,51.1,45.0,39.3,35.4,29.8,75,55,48,30.31,30.15,16,2,16,0.00
2013-3-15,65.1,52.9,41.4,46.9,40.4,35.1,80,64,44,30.29,30.12,6,0,6,0.00
2013-3-16,77.5,61.1,46.9,54.5,46.9,40.6,83,62,41,30.17,29.99,13,1,13,0.00
2013-3-17,75.4,61.9,49.6,56.8,50.4,41.8,81,67,45,30.13,30.00,8,0,8,0.00
2013-3-18,78.6,67.4,61.0,65.7,60.2,56.1,87,78,60,30.06,29.86,5,0,5,0.00
2013-3-19,79.0,67.4,60.6,63.9,59.7,56.0,88,77,58,30.01,29.88,15,1,15,0.04
2013-3-20,64.6,60.9,54.0,57.8,54.5,49.2,86,80,73,30.01,29.83,21,-1,21,0.10
2013-3-21,66.0,55.1,46.6,49.4,41.0,35.8,86,62,34,29.95,29.85,13,-2,13,0.00
2013-3-22,64.8,56.7,48.4,50.0,43.5,38.0,74,62,50,30.06,29.92,10,1,10,0.00
2013-3-23,68.2,61.3,56.5,63.8,57.2,50.0,91,86,74,30.01,29.79,8,0,8,2.12
2013-3-24,80.4,69.8,62.2,72.5,65.5,59.6,92,87,74,29.82,29.53,9,-2,9,0.55
2013-3-25,67.3,59.6,52.5,62.0,42.2,32.1,85,54,32,30.03,29.62,15,3,15,0.00
2013-3-26,56.5,49.8,42.6,33.0,30.1,26.2,58,47,38,30.25,30.02,14,3,14,0.00
2013-3-27,57.0,48.5,41.0,39.6,34.3,29.2,74,58,47,30.31,30.21,12,1,12,0.00
2013-3-28,63.5,51.5,41.7,44.5,39.4,35.0,77,65,42,30.31,30.22,13,1,13,0.00
2013-3-29,67.6,55.6,45.0,47.0,43.3,38.9,81,65,43,30.34,30.22,5,0,5,0.00
2013-3-30,73.9,59.7,47.5,55.6,48.6,41.6,82,68,41,30.27,30.12,6,0,6,0.02
2013-3-31,79.5,65.6,53.2,58.6,53.2,45.8,80,65,47,30.15,29.97,7,0,7,0.00